www.pogodaiklimat.ru

Погода и климат >> Архив погоды >> Россия >> Крым >> Алушта


АРХИВ ПОГОДЫ в Алуште

Время (UTC), дата Ветер
(напр.,м/с)
 
Видим.   Явления Облачность Т
(С)
Тd
(С)
f
(%)
Тe
(С)
Тes
(С)
Комфортность P
(гПа)
Po
(гПа)
Тmin
(С)
Tmax
(С)
R
(мм)
R24
(мм)
S
(см)
21 12.05 С 1 20 км {ливн. осадки} 8/8 1500 м
[Sc diur, vesp]
+15.0 +11.8 81 +16 +16 тепло 1021.0 1012.0
00 13.05 С 1 20 км {ливн. осадки} 9/9 1500 м
[Sc]
+14.5 +10.3 76 +15 +15 тепло 1019.8 1010.9
03 13.05 СЗ 1 50 км 8/5 1500 м
[Sc Ac trans]
+14.7 +9.7 72 +15 +15 по сезону 1019.9 1011.0 +14.3 0.0
06 13.05 В 1 20 км 8/8 1500 м
[Sc]
+15.6 +13.1 85 +16 +18 по сезону 1020.5 1011.6 +14.3 0.0
09 13.05 ЮВ 1 20 км 8/6 600 м
[Cb calv Ac trans]
+17.1 +13.2 78 +18 +24 по сезону 1022.2 1013.3
12 13.05 Ю 2 50 км 6/6 1000 м
[Cb calv]
+18.2 +12.4 69 +19 +24 тепло 1022.2 1013.3
15 13.05 ЮВ 2 50 км 4/4 1000 м
[Sc]
+15.7 +13.4 86 +16 +17 по сезону 1021.0 1012.0
18 13.05 штиль 0 20 км 6/6 1500 м
[Sc]
+14.9 +12.9 88 +15 +15 по сезону 1020.8 1011.9 +18.8
21 13.05 СЗ 1 20 км ясно +14.6 +11.4 81 +15 +15 по сезону 1022.3 1013.3
00 14.05 З 1 20 км ясно +12.5 +10.7 89 +12 +12 по сезону 1021.1 1012.0
03 14.05 З 1 20 км 8/0
[Ci sp]
+11.8 +10.4 91 +12 +12 прохладно 1019.9 1010.9 +11.8
06 14.05 В 1 20 км 5/1 1500 м
[Cu hum Ci sp]
+16.4 +12.4 77 +17 +25 по сезону 1019.9 1011.0 +11.8
09 14.05 ЮВ 3 20 км 3/1 1500 м
[Sc diur, vesp Ci fib]
+17.3 +14.2 82 +17 +29 опасность
простуды
1020.9 1012.0
12 14.05 Ю 2 20 км 8/3 1500 м
[Cu Sc Ci sp]
+18.4 +12.6 69 +19 +24 по сезону 1020.9 1012.0
15 14.05 ЮВ 2 50 км 9/3 1500 м
[Cu Sc Ci sp]
+16.6 +12.1 75 +17 +17 по сезону 1020.9 1012.0
18 14.05 З 1 20 км 5/0
[Ci sp]
+14.8 +10.1 73 +15 +15 по сезону 1019.8 1010.9 +18.4
21 14.05 З 1 20 км 3/0
[Ci fib]
+14.5 +10.7 78 +15 +15 по сезону 1021.0 1012.0
00 15.05 ЮЗ 1 20 км 3/0
[Ci fib]
+14.2 +9.8 75 +15 +15 по сезону 1019.7 1010.7
03 15.05 С 1 50 км 10/0
[Ci fib]
+14.2 +11.8 85 +15 +15 по сезону 1018.0 1009.1 +14.0
06 15.05 В 2 50 км 6/0
[Ci fib]
+17.8 +12.6 72 +18 +26 по сезону 1018.4 1009.6 +13.8
09 15.05 В 2 50 км 10/0
[Ci fib]
+18.8 +11.6 63 +20 +20 тепло 1019.6 1010.7
12 15.05 В 2 50 км 10/0
[Ci sp]
+20.4 +11.0 55 +23 +23 комфорт 1018.1 1009.3
15 15.05 С 1 50 км 10/0
[Ci sp]
+21.0 +8.9 46 +24 +24 комфорт 1016.8 1008.0
18 15.05 СЗ 3 50 км 8/0
[Ci sp]
+21.0 +9.2 47 +23 +23 комфорт 1016.2 1007.5 +21.2
21 15.05 СЗ 2 20 км 3/0
[Ci sp]
+21.2 +12.3 57 +23 +23 комфорт 1016.8 1008.0
00 16.05 СЗ 1 20 км 1/0
[Ci sp]
+21.0 +15.3 70 +25 +25 комфорт 1015.4 1006.7
03 16.05 СВ 1 50 км 1/0
[Ci sp]
+21.2 +15.9 72 +25 +25 комфорт 1013.6 1004.9 +18.9
06 16.05 В 1 50 км 3/0
[Ci sp]
+22.6 +16.0 66 +27 +36 душно 1013.4 1004.8 +20.2
09 16.05 штиль 0 50 км ясно +26.1 +17.2 58 +30 +54 опасность
солнечного
удара
1013.9 1005.3
12 16.05 В 3 50 км 3/3 1500 м
[Cu Sc]
+26.2 +16.4 55 +30 +39 душно 1013.9 1005.3
15 16.05 СЗ 1 50 км 8/8 1500 м
[Sc]
+25.7 +16.0 55 +29 +30 душно 1013.9 1005.3
18 16.05 СЗ 1 20 км 9/9 1500 м
[Sc]
+23.9 +15.5 59 +27 +27 жарко 1011.7 1003.1 +26.4
21 16.05 Ю 2 20 км 8/8 1500 м
[Sc]
+23.1 +14.4 58 +27 +27 душно 1012.7 1004.0
00 17.05 штиль 0 20 км 8/8 1500 м
[Sc]
+22.1 +16.6 71 +26 +26 душно 1012.7 1004.0
03 17.05 штиль 0 50 км 8/8 1500 м
[Sc]
+21.6 +15.6 69 +25 +25 комфорт 1010.6 1002.0 +21.6
06 17.05 В 2 20 км 8/3 1500 м
[Sc Ac trans]
+24.4 +14.9 55 +27 +31 жарко 1010.7 1002.2 +21.6
09 17.05 Ю 1 20 км 8/0
[Ac trans Ci fib]
+24.2 +16.7 63 +28 +34 душно 1012.6 1004.0
12 17.05 ЮВ 1 50 км 4/1 1500 м
[Cu hum Ac trans Cc]
+24.3 +17.0 64 +28 +38 душно 1011.3 1002.7
15 17.05 В 1 20 км 1/0
[Ac trans]
+24.2 +17.9 68 +28 +32 душно 1009.9 1001.3
18 17.05 ЮЗ 1 20 км 10/0
[Cs]
+20.2 +15.1 72 +24 +24 комфорт 1009.3 1000.6 +26.3
21 17.05 СЗ 3 20 км 10/0
[Ac trans Cs]
+20.3 +16.1 77 +23 +23 комфорт 1011.4 1002.7
00 18.05 СЗ 3 20 км 10/0
[Ac trans Cs]
+20.2 +14.8 71 +23 +23 комфорт 1007.4 998.7
03 18.05 СЗ 2 50 км 10/3 1000 м
[Cb calv Ac trans Ci sp]
+20.8 +15.6 72 +25 +25 комфорт 1006.3 997.7 +20.0
06 18.05 ЮВ 1 50 км 9/3 1500 м
[Sc Ci sp]
+26.3 +15.8 52 +29 +35 жарко 1005.5 997.1 +20.0
09 18.05 ЮВ 1 20 км 8/3 1500 м
[Cu Sc Ac trans Ci sp]
+26.2 +15.3 51 +29 +35 жарко 1007.2 998.7
12 18.05 СВ 1 20 км 9/4 1500 м
[Cu Sc Ac trans Ci sp]
+26.3 +16.8 56 +30 +32 душно 1005.8 997.3
15 18.05 В 1 20 км 6/1 1500 м
[Sc Ci sp]
+25.2 +15.8 56 +28 +30 жарко 1005.8 997.3
18 18.05 З 2 20 км 4/4 1500 м
[Sc]
+22.0 +15.3 66 +26 +26 душно 1005.1 996.5 +27.2
21 18.05 З 1 20 км 3/0
[Ci sp]
+21.1 +13.8 63 +24 +24 комфорт 1006.0 997.3
00 19.05 Ю 1 20 км 4/3 1500 м
[Sc Ci sp]
+20.4 +12.6 61 +24 +24 комфорт 1006.0 997.3
03 19.05 В 1 20 км 8/6 1500 м
[Cb calv Ci sp]
+19.0 +15.1 78 +21 +21 комфорт 1006.4 997.7 +19.0
06 19.05 СЗ 7 50 км гроза без осадков {ливн. осадки} 9/9 1500 м
[]
+20.8 +15.3 71 +24 +24 комфорт 1006.0 997.3 +18.5 0.3
09 19.05 З 1 20 км {гроза} 9/9 1500 м
[Cb cap]
+19.1 +17.8 92 +22 +24 комфорт 1010.0 1001.3
12 19.05 СЗ 5 10 км слаб. ливневой дождь {гроза} 9/8 1500 м
[Cb calv Ci sp]
+18.8 +15.4 81 +20 +21 тепло 1008.7 1000.0
15 19.05 Ю 3 20 км {ливн. осадки} 3/3 1500 м
[Cu Sc]
+19.4 +18.1 92 +22 +24 комфорт 1010.9 1002.2 5
18 19.05 С 1 20 км {ливн. осадки} 1/0
[Ac trans]
+17.6 +16.6 94 +19 +19 тепло 1011.7 1003.0 +21.4 4

 

Местоположение метеостанции Алушта (Крым, Россия): широта 44.67 долгота 34.40 высота над уровнем моря 75 м.

В архиве по умолчанию представлена погода в Алуште за последнюю неделю. Архивные данные за месяц целиком и за предыдущие месяцы, начиная с января 2011 года, Вы можете получить, выбрав интересующий диапазон дат из раскрывающегося списка и нажав кнопку "Ввод!".


*Определитесь, кто Вы:
робот инопланетянин человек

Внимание! Время в таблицах - всемирное. Для получения местного времени необходимо прибавить поправку, которая равна 3 ч.

Смотрите также архив погоды в соседних городах и на ближайших метеорологических станциях:

Погода на Ангарском Перевале (Крым, Россия) (10 км)
Погода в Никитском саду (Крым, Россия) (20 км)
Погода в Ялте (Крым, Россия) (28 км)
Погода на Ай-Петри (Крым, Россия) (34 км)
Погода в Симферополе город (Крым, Россия) (38 км)
Погода в Почтовом (Крым, Россия) (40 км)
Погода в Белогорске (Крым, Россия) (45 км)
Погода в Симферополе (Крым, Россия) (52 км)
Погода в Карадаге (Крым, Россия) (68 км)
Погода в Севастополе (город Севастополь, Россия) (69 км)

Пояснения к столбцам:

Ветер - указаны скорость ветра в м/с - средняя за 10 мин, порывы в срок и между сроками (в фигурных скобках) и направление, откуда дует ветер: С - северный, СВ - северо-восточный, В - восточный, ЮВ - юго-восточный, Ю - южный, ЮЗ - юго-западный, З - западный, СЗ - северо-западный.
Видимость - горизонтальная дальность видимости в метрах или километрах. При видимости от 1 до 10 км при отсутствии осадков обычно наблюдается дымка, при ухудшении видимости до 1 км и менее - туман. В сухую погоду видимость может ухудшаться дымом, пылью или мглою.
Явления - указаны атмосферные явления, наблюдавшиеся в срок или в последний час перед сроком; фигурными скобками обозначены явления, наблюдавшиеся между сроками (за 1-3 часа до срока); квадратными скобками обозначены град или гололедные отложения с указанием их диаметра в мм.
Облачность - указаны через наклонную черту общая и нижняя облачность в баллах и высота нижней границы облаков в метрах; квадратными скобками обозначены формы облаков: Ci - перистые, Cs - перисто-слоистые, Cc - перисто-кучевые, Ac - высококучевые, As - высокослоистые, Sc - слоисто-кучевые, Ns - слоисто-дождевые, Cu - кучевые, Cb - кучево-дождевые. Подробнее классификацию облаков см. в Атласе облаков (PDF).
T - Температура воздуха - температура, измеренная на высоте 2 м над землей.
Td - Температура точки росы - температура, при понижении до которой содержащийся в воздухе водяной пар достигнет насыщения.
f - Относительная влажность воздуха - влажноcть воздуха, измеренная на высоте 2 м над землей.
Te - Эффективная температура - температура, которую ощущает одетый по сезону человек в тени. Характеристика душности погоды. При расчете учитывается влияние влажности воздуха и скорости ветра на теплоощущения человека.
Tes - Эффективная температура на солнце - температура, которую ощущает человек, с поправкой на солнечный нагрев. Характеристика знойности погоды. Зависит от высоты солнца над горизонтом, облачности и скорости ветра. Ночью, в пасмурную погоду, а также при ветре 12 м/с и более поправка равна нулю.
P - Атмосферное давление - приведенное к уровню моря атмосферное давление.
Po - Атмосферное давление - измеренное на уровне метеостанции атмосферное давление.
Tmin - Минимальная температура - минимум температуры воздуха на высоте 2 м над землей.
Tmax - Максимальная температура - максимум температуры воздуха на высоте 2 м над землей.
R - Количество осадков - Количество выпавших осадков за период времени, мм. При наведении курсора мыши на число - период времени, за который выпало указанное количество осадков.
R24 - Количество осадков - Количество выпавших осадков за 24 часа, мм.
S - Снежный покров - Высота снежного покрова, см. При наведении курсора мыши на число - состояние снежного покрова и степень покрытия местности в баллах.